Погода в Орджоникидзе

Россия / Красноярский край     58°27′19″N   95°27′11″E
темп.,
°C
ветер,
м/с
пор.,
м/с
влажн.,
%
обл.,
%
осадки,
мм/ч
давл.,
гПа
погр.,
м
13 мая, чт
чт1301:00+3юв11570 0.0 101810
04:00+1юв00625 0.0 101910
07:00+6юв11465 0.0 1019180
10:00+12ю22306 0.0 10181571
13:00+15ююз23253 0.0 10162211
16:00+16юз34235 0.0 10152433
19:00+14ююз36305 0.0 1014594
22:00+6ю22515 0.0 101516
14 мая, пт
пт1401:00+4ююв22585 0.0 101417
04:00+3ююв226212 0.0 101316
07:00+8ю394290 0.0 1011397
10:00+13ююз5931100 0.0 10081236
13:00+6зюз2489100 3.3 1009451
16:00+7з4688100 2.2 10091010
19:00+6зсз5869100 3.1 10101016
22:00+2з4108445 0.0 1013491
15 мая, сб
сб1501:00+1з3108631 0.0 1014472
04:00−1зюз399556 0.0 1014291
07:00+2юз41079100 0.0 1013544
10:00+3юз41296100 1.2 1011679
13:00+4юз51394100 1.8 1009945
16:00+10з41179100 0.1 10071364
19:00+9сз4970100 0.3 1009613
22:00+3с2290100 0.0 101134
16 мая, вс
вс1601:000ссз1190100 0.0 101314
04:00−2сз119128 0.0 101410
07:00+2ссз246510 0.0 1015553
10:00+7сз343814 0.0 10151317
13:00+10сз352688 0.0 10141891
16:00+12сз46245 0.0 10132285
19:00+10ссз463168 0.0 10131085
22:00+3ссз22505 0.0 101518
17 мая, пн
пн1701:000ссв2258100 0.0 101711
04:00−2ссв1165100 0.0 101710
07:00+2в0145100 0.0 1017238
10:00+6юз1332100 0.0 10151008
13:00+6зюз2243100 0.0 10131444
16:00+5юз1170100 0.1 1012717
19:00+5вюв1171100 0.1 1010691
22:00+2св118625 0.0 101018